Time,TemperatureF,DewpointF,PressureIn,WindDirection,WindDirectionDegrees,WindSpeedMPH,WindSpeedGustMPH,Humidity,HourlyPrecipIn,Conditions,Clouds,dailyrainin,SoftwareType,DateUTC
2013-07-17 00:01:00,77.7,71.1,30.27,West,270,0.0,0.0,80,0.00,,---,0.00,VWS V14.00,2013-07-17 04:01:00,
2013-07-17 00:03:00,77.5,71.2,30.27,West,270,0.0,0.0,81,0.00,,---,0.00,VWS V14.00,2013-07-17 04:03:00,
2013-07-17 00:08:00,77.5,71.2,30.27,West,270,0.0,0.0,81,0.00,,---,0.00,VWS V14.00,2013-07-17 04:08:00,
2013-07-17 00:13:00,77.4,71.1,30.27,West,270,0.0,0.0,81,0.00,,---,0.00,VWS V14.00,2013-07-17 04:13:00,
2013-07-17 00:18:00,77.4,71.1,30.27,West,270,0.0,0.0,81,0.00,,---,0.00,VWS V14.00,2013-07-17 04:18:00,
2013-07-17 00:23:00,77.2,70.9,30.27,West,270,0.0,0.0,81,0.00,,---,0.00,VWS V14.00,2013-07-17 04:23:00,
2013-07-17 00:28:00,77.2,71.3,30.27,West,270,0.0,0.0,82,0.00,,---,0.00,VWS V14.00,2013-07-17 04:28:00,
2013-07-17 00:33:00,77.2,71.3,30.27,West,270,0.0,0.0,82,0.00,,---,0.00,VWS V14.00,2013-07-17 04:33:00,
2013-07-17 00:38:00,77.0,71.1,30.27,West,270,0.0,0.0,82,0.00,,---,0.00,VWS V14.00,2013-07-17 04:38:00,
2013-07-17 00:43:00,77.0,71.1,30.27,West,270,0.0,0.0,82,0.00,,---,0.00,VWS V14.00,2013-07-17 04:43:00,
2013-07-17 00:48:00,77.0,71.1,30.27,West,270,0.0,0.0,82,0.00,,---,0.00,VWS V14.00,2013-07-17 04:48:00,
2013-07-17 00:53:00,77.0,71.1,30.27,West,270,0.0,0.0,82,0.00,,---,0.00,VWS V14.00,2013-07-17 04:53:00,
2013-07-17 00:55:00,77.0,71.4,30.27,West,270,0.0,0.0,83,0.00,,---,0.00,VWS V14.00,2013-07-17 04:55:00,
2013-07-17 00:59:00,77.0,71.4,30.27,West,270,0.0,0.0,83,0.00,,---,0.00,VWS V14.00,2013-07-17 04:59:00,
2013-07-17 01:04:00,77.0,71.4,30.27,West,270,0.0,0.0,83,0.00,,---,0.00,VWS V14.00,2013-07-17 05:04:00,
2013-07-17 01:09:00,76.8,71.3,30.27,West,270,0.0,0.0,83,0.00,,---,0.00,VWS V14.00,2013-07-17 05:09:00,
2013-07-17 01:14:00,76.8,71.3,30.27,West,270,0.0,0.0,83,0.00,,---,0.00,VWS V14.00,2013-07-17 05:14:00,
2013-07-17 01:19:00,76.8,71.3,30.27,West,270,0.0,0.0,83,0.00,,---,0.00,VWS V14.00,2013-07-17 05:19:00,
2013-07-17 01:24:00,76.8,71.3,30.27,West,270,0.0,0.0,83,0.00,,---,0.00,VWS V14.00,2013-07-17 05:24:00,
2013-07-17 01:30:00,76.6,71.1,30.27,West,270,0.0,0.0,83,0.00,,---,0.00,VWS V14.00,2013-07-17 05:30:00,
2013-07-17 01:35:00,76.6,71.1,30.27,West,270,0.0,0.0,83,0.00,,---,0.00,VWS V14.00,2013-07-17 05:35:00,
2013-07-17 01:40:00,76.6,71.1,30.27,West,270,0.0,0.0,83,0.00,,---,0.00,VWS V14.00,2013-07-17 05:40:00,
2013-07-17 01:45:00,76.6,71.1,30.27,West,270,0.0,0.0,83,0.00,,---,0.00,VWS V14.00,2013-07-17 05:45:00,
2013-07-17 01:50:00,76.5,70.9,30.27,West,270,0.0,0.0,83,0.00,,---,0.00,VWS V14.00,2013-07-17 05:50:00,
2013-07-17 01:55:00,76.5,70.9,30.27,West,270,0.0,0.0,83,0.00,,---,0.00,VWS V14.00,2013-07-17 05:55:00,
2013-07-17 02:00:00,76.5,71.3,30.27,West,270,0.0,0.0,84,0.00,,---,0.00,VWS V14.00,2013-07-17 06:00:00,
2013-07-17 02:05:00,76.5,71.3,30.27,West,270,0.0,0.0,84,0.00,,---,0.00,VWS V14.00,2013-07-17 06:05:00,
2013-07-17 02:10:00,76.5,71.3,30.27,West,270,0.0,0.0,84,0.00,,---,0.00,VWS V14.00,2013-07-17 06:10:00,
2013-07-17 02:15:00,76.3,71.1,30.27,West,270,0.0,0.0,84,0.00,,---,0.00,VWS V14.00,2013-07-17 06:15:00,
2013-07-17 02:20:00,76.3,71.1,30.27,West,270,0.0,0.0,84,0.00,,---,0.00,VWS V14.00,2013-07-17 06:20:00,
2013-07-17 02:25:00,76.5,71.3,30.27,West,270,0.0,0.0,84,0.00,,---,0.00,VWS V14.00,2013-07-17 06:25:00,
2013-07-17 02:30:00,76.5,71.3,30.27,West,270,0.0,0.0,84,0.00,,---,0.00,VWS V14.00,2013-07-17 06:30:00,
2013-07-17 02:35:00,76.5,70.9,30.27,West,270,0.0,0.0,83,0.00,,---,0.00,VWS V14.00,2013-07-17 06:35:00,
2013-07-17 02:40:00,76.6,71.1,30.27,West,270,0.0,0.0,83,0.00,,---,0.00,VWS V14.00,2013-07-17 06:40:00,
2013-07-17 02:45:00,76.6,71.1,30.27,West,270,0.0,0.0,83,0.00,,---,0.00,VWS V14.00,2013-07-17 06:45:00,
2013-07-17 02:50:00,76.8,71.3,30.27,West,270,0.0,0.0,83,0.00,,---,0.00,VWS V14.00,2013-07-17 06:50:00,
2013-07-17 02:55:00,76.8,71.3,30.27,West,270,0.0,0.0,83,0.00,,---,0.00,VWS V14.00,2013-07-17 06:55:00,
2013-07-17 03:00:00,76.8,70.9,30.27,West,270,0.0,0.0,82,0.00,,---,0.00,VWS V14.00,2013-07-17 07:00:00,
2013-07-17 03:05:00,76.8,70.9,30.27,West,270,0.0,0.0,82,0.00,,---,0.00,VWS V14.00,2013-07-17 07:05:00,
2013-07-17 03:10:00,77.0,70.7,30.24,West,270,0.0,0.0,81,0.00,,---,0.00,VWS V14.00,2013-07-17 07:10:00,
2013-07-17 03:15:00,77.0,70.7,30.24,West,270,1.6,1.6,81,0.00,,---,0.00,VWS V14.00,2013-07-17 07:15:00,
2013-07-17 03:20:00,77.0,70.7,30.24,West,270,0.0,0.0,81,0.00,,---,0.00,VWS V14.00,2013-07-17 07:20:00,
2013-07-17 03:25:00,77.0,70.7,30.24,West,270,0.0,0.0,81,0.00,,---,0.00,VWS V14.00,2013-07-17 07:25:00,
2013-07-17 03:30:00,77.0,70.7,30.24,West,270,0.0,0.0,81,0.00,,---,0.00,VWS V14.00,2013-07-17 07:30:00,
2013-07-17 03:35:00,77.2,70.5,30.24,West,270,0.0,1.1,80,0.00,,---,0.00,VWS V14.00,2013-07-17 07:35:00,
2013-07-17 03:40:00,77.2,70.5,30.24,West,270,1.3,1.3,80,0.00,,---,0.00,VWS V14.00,2013-07-17 07:40:00,
2013-07-17 03:45:00,77.2,70.5,30.24,West,270,0.0,0.0,80,0.00,,---,0.00,VWS V14.00,2013-07-17 07:45:00,
2013-07-17 03:50:00,77.2,70.5,30.24,West,270,0.0,0.0,80,0.00,,---,0.00,VWS V14.00,2013-07-17 07:50:00,
2013-07-17 03:56:00,77.2,70.5,30.24,West,270,0.0,0.0,80,0.00,,---,0.00,VWS V14.00,2013-07-17 07:56:00,
2013-07-17 04:01:00,77.2,70.5,30.24,West,270,0.0,0.0,80,0.00,,---,0.00,VWS V14.00,2013-07-17 08:01:00,
2013-07-17 04:06:00,77.0,70.4,30.24,West,270,0.0,0.0,80,0.00,,---,0.00,VWS V14.00,2013-07-17 08:06:00,
2013-07-17 04:11:00,77.0,70.4,30.24,West,270,0.0,1.1,80,0.00,,---,0.00,VWS V14.00,2013-07-17 08:11:00,
2013-07-17 04:16:00,76.8,70.6,30.24,West,270,0.0,0.0,81,0.00,,---,0.00,VWS V14.00,2013-07-17 08:16:00,
2013-07-17 04:21:00,76.8,70.6,30.24,West,270,0.0,0.0,81,0.00,,---,0.00,VWS V14.00,2013-07-17 08:21:00,
2013-07-17 04:26:00,76.6,70.4,30.24,West,270,0.0,0.0,81,0.00,,---,0.00,VWS V14.00,2013-07-17 08:26:00,
2013-07-17 04:31:00,76.6,70.4,30.24,West,270,0.9,0.9,81,0.00,,---,0.00,VWS V14.00,2013-07-17 08:31:00,
2013-07-17 04:36:00,76.6,70.7,30.27,West,270,0.0,0.0,82,0.00,,---,0.00,VWS V14.00,2013-07-17 08:36:00,
2013-07-17 04:41:00,76.5,70.6,30.27,West,270,1.6,2.2,82,0.00,,---,0.00,VWS V14.00,2013-07-17 08:41:00,
2013-07-17 04:46:00,76.5,70.6,30.27,West,270,0.0,0.0,82,0.00,,---,0.00,VWS V14.00,2013-07-17 08:46:00,
2013-07-17 04:51:00,76.5,70.6,30.24,West,270,0.0,0.0,82,0.00,,---,0.00,VWS V14.00,2013-07-17 08:51:00,
2013-07-17 04:56:00,76.5,70.6,30.24,West,270,0.0,0.0,82,0.00,,---,0.00,VWS V14.00,2013-07-17 08:56:00,
2013-07-17 05:01:00,76.3,70.7,30.24,West,270,0.0,0.0,83,0.00,,---,0.00,VWS V14.00,2013-07-17 09:01:00,
2013-07-17 05:06:00,76.3,70.7,30.24,West,270,0.0,0.0,83,0.00,,---,0.00,VWS V14.00,2013-07-17 09:06:00,
2013-07-17 05:11:00,76.1,70.6,30.24,West,270,0.0,0.0,83,0.00,,---,0.00,VWS V14.00,2013-07-17 09:11:00,
2013-07-17 05:16:00,76.1,70.6,30.24,West,270,0.0,0.0,83,0.00,,---,0.00,VWS V14.00,2013-07-17 09:16:00,
2013-07-17 05:21:00,76.1,70.6,30.27,West,270,0.0,0.0,83,0.00,,---,0.00,VWS V14.00,2013-07-17 09:21:00,
2013-07-17 05:26:00,75.9,70.7,30.27,West,270,0.0,0.0,84,0.00,,---,0.00,VWS V14.00,2013-07-17 09:26:00,
2013-07-17 05:31:00,75.9,70.7,30.27,West,270,0.0,0.0,84,0.00,,---,0.00,VWS V14.00,2013-07-17 09:31:00,
2013-07-17 05:36:00,75.9,70.7,30.24,West,270,0.0,0.0,84,0.00,,---,0.00,VWS V14.00,2013-07-17 09:36:00,
2013-07-17 05:41:00,75.7,70.6,30.24,West,270,0.0,0.0,84,0.00,,---,0.00,VWS V14.00,2013-07-17 09:41:00,
2013-07-17 05:46:00,75.7,70.6,30.24,West,270,0.0,0.0,84,0.00,,---,0.00,VWS V14.00,2013-07-17 09:46:00,
2013-07-17 05:51:00,75.7,70.6,30.27,West,270,0.0,0.0,84,0.00,,---,0.00,VWS V14.00,2013-07-17 09:51:00,
2013-07-17 05:56:00,75.6,70.7,30.27,West,270,0.0,0.0,85,0.00,,---,0.00,VWS V14.00,2013-07-17 09:56:00,
2013-07-17 06:01:00,75.6,70.7,30.27,West,270,0.0,0.0,85,0.00,,---,0.00,VWS V14.00,2013-07-17 10:01:00,
2013-07-17 06:06:00,75.6,70.7,30.27,West,270,1.6,1.6,85,0.00,,---,0.00,VWS V14.00,2013-07-17 10:06:00,
2013-07-17 06:11:00,75.4,70.6,30.27,West,270,0.9,0.9,85,0.00,,---,0.00,VWS V14.00,2013-07-17 10:11:00,
2013-07-17 06:16:00,75.4,70.6,30.27,West,270,0.0,0.0,85,0.00,,---,0.00,VWS V14.00,2013-07-17 10:16:00,
2013-07-17 06:21:00,75.2,70.4,30.27,West,270,0.0,0.0,85,0.00,,---,0.00,VWS V14.00,2013-07-17 10:21:00,
2013-07-17 06:26:00,75.2,70.7,30.27,West,270,0.0,0.0,86,0.00,,---,0.00,VWS V14.00,2013-07-17 10:26:00,
2013-07-17 06:31:00,75.2,70.7,30.27,West,270,0.0,0.0,86,0.00,,---,0.00,VWS V14.00,2013-07-17 10:31:00,
2013-07-17 06:36:00,75.4,70.9,30.30,West,270,0.0,0.0,86,0.00,,---,0.00,VWS V14.00,2013-07-17 10:36:00,
2013-07-17 06:41:00,75.2,70.7,30.30,West,270,0.0,0.0,86,0.00,,---,0.00,VWS V14.00,2013-07-17 10:41:00,
2013-07-17 06:46:00,75.2,70.7,30.30,West,270,0.0,0.0,86,0.00,,---,0.00,VWS V14.00,2013-07-17 10:46:00,
2013-07-17 06:51:00,75.2,70.7,30.30,West,270,0.0,0.0,86,0.00,,---,0.00,VWS V14.00,2013-07-17 10:51:00,
2013-07-17 06:56:00,75.2,70.7,30.30,West,270,0.0,0.0,86,0.00,,---,0.00,VWS V14.00,2013-07-17 10:56:00,
2013-07-17 07:01:00,75.2,70.7,30.30,West,270,0.0,0.9,86,0.00,,---,0.00,VWS V14.00,2013-07-17 11:01:00,
2013-07-17 07:06:00,75.4,71.2,30.30,West,270,0.0,0.0,87,0.00,,---,0.00,VWS V14.00,2013-07-17 11:06:00,
2013-07-17 07:11:00,75.4,71.2,30.30,West,270,0.0,0.0,87,0.00,,---,0.00,VWS V14.00,2013-07-17 11:11:00,
2013-07-17 07:16:00,75.6,71.4,30.30,West,270,0.0,0.0,87,0.00,,---,0.00,VWS V14.00,2013-07-17 11:16:00,
2013-07-17 07:21:00,75.6,71.4,30.30,West,270,0.0,0.0,87,0.00,,---,0.00,VWS V14.00,2013-07-17 11:21:00,
2013-07-17 07:26:00,75.7,71.6,30.30,West,270,0.0,1.1,87,0.00,,---,0.00,VWS V14.00,2013-07-17 11:26:00,
2013-07-17 07:31:00,75.9,71.8,30.30,West,270,0.9,2.0,87,0.00,,---,0.00,VWS V14.00,2013-07-17 11:31:00,
2013-07-17 07:36:00,76.1,71.9,30.30,West,270,0.0,0.0,87,0.00,,---,0.00,VWS V14.00,2013-07-17 11:36:00,
2013-07-17 07:41:00,76.5,72.3,30.30,WSW,248,2.0,2.0,87,0.00,,---,0.00,VWS V14.00,2013-07-17 11:41:00,
2013-07-17 07:46:00,76.6,72.1,30.30,SW,225,0.0,1.6,86,0.00,,---,0.00,VWS V14.00,2013-07-17 11:46:00,
2013-07-17 07:51:00,76.8,72.3,30.30,SW,225,0.0,0.0,86,0.00,,---,0.00,VWS V14.00,2013-07-17 11:51:00,
2013-07-17 07:56:00,77.2,72.3,30.30,WSW,248,0.0,0.0,85,0.00,,---,0.00,VWS V14.00,2013-07-17 11:56:00,
2013-07-17 08:01:00,77.4,72.5,30.30,WSW,248,0.0,1.6,85,0.00,,---,0.00,VWS V14.00,2013-07-17 12:01:00,
2013-07-17 08:06:00,77.5,72.7,30.30,WSW,248,1.3,1.3,85,0.00,,---,0.00,VWS V14.00,2013-07-17 12:06:00,
2013-07-17 08:11:00,78.1,72.9,30.30,WSW,248,0.0,0.9,84,0.00,,---,0.00,VWS V14.00,2013-07-17 12:11:00,
2013-07-17 08:16:00,78.4,73.2,30.30,WSW,248,1.1,1.6,84,0.00,,---,0.00,VWS V14.00,2013-07-17 12:16:00,
2013-07-17 08:21:00,78.8,73.2,30.30,WSW,248,0.0,0.0,83,0.00,,---,0.00,VWS V14.00,2013-07-17 12:21:00,
2013-07-17 08:26:00,79.0,73.0,30.30,West,270,0.0,1.6,82,0.00,,---,0.00,VWS V14.00,2013-07-17 12:26:00,
2013-07-17 08:31:00,79.3,73.0,30.30,West,270,0.0,0.0,81,0.00,,---,0.00,VWS V14.00,2013-07-17 12:31:00,
2013-07-17 08:36:00,79.7,73.4,30.30,WSW,248,1.1,1.3,81,0.00,,---,0.00,VWS V14.00,2013-07-17 12:36:00,
2013-07-17 08:41:00,79.9,73.2,30.30,North,0,0.0,1.6,80,0.00,,---,0.00,VWS V14.00,2013-07-17 12:41:00,
2013-07-17 08:46:00,80.1,73.3,30.30,WSW,248,0.0,0.0,80,0.00,,---,0.00,VWS V14.00,2013-07-17 12:46:00,
2013-07-17 08:51:00,80.2,73.1,30.33,WSW,248,0.0,1.1,79,0.00,,---,0.00,VWS V14.00,2013-07-17 12:51:00,
2013-07-17 08:56:00,80.6,73.5,30.33,WSW,248,0.0,1.1,79,0.00,,---,0.00,VWS V14.00,2013-07-17 12:56:00,
2013-07-17 09:01:00,80.8,73.3,30.33,WSW,248,0.9,0.9,78,0.00,,---,0.00,VWS V14.00,2013-07-17 13:01:00,
2013-07-17 09:06:00,81.0,73.5,30.27,West,270,0.0,1.1,78,0.00,,---,0.00,VWS V14.00,2013-07-17 13:06:00,
2013-07-17 09:11:00,81.1,73.2,30.27,West,270,0.0,1.3,77,0.00,,---,0.00,VWS V14.00,2013-07-17 13:11:00,
2013-07-17 09:16:00,81.3,73.4,30.27,West,270,0.0,0.0,77,0.00,,---,0.00,VWS V14.00,2013-07-17 13:16:00,
2013-07-17 09:21:00,81.7,73.8,30.30,SW,225,0.9,2.0,77,0.00,,---,0.00,VWS V14.00,2013-07-17 13:21:00,
2013-07-17 09:26:00,81.7,73.8,30.30,WSW,248,1.1,1.3,77,0.00,,---,0.00,VWS V14.00,2013-07-17 13:26:00,
2013-07-17 09:27:00,81.7,73.8,30.30,WSW,248,0.9,2.0,77,0.00,,---,0.00,VWS V14.00,2013-07-17 13:27:00,
2013-07-17 09:32:00,81.9,73.6,30.30,SW,225,0.9,2.5,76,0.00,,---,0.00,VWS V14.00,2013-07-17 13:32:00,
2013-07-17 09:37:00,82.0,73.7,30.30,SSW,202,0.0,0.0,76,0.00,,---,0.00,VWS V14.00,2013-07-17 13:37:00,
2013-07-17 09:42:00,82.4,74.1,30.30,WSW,248,0.0,0.0,76,0.00,,---,0.00,VWS V14.00,2013-07-17 13:42:00,
2013-07-17 09:47:00,82.6,73.9,30.30,South,180,0.9,1.1,75,0.00,,---,0.00,VWS V14.00,2013-07-17 13:47:00,
2013-07-17 09:52:00,82.8,74.0,30.30,WSW,248,1.6,1.6,75,0.00,,---,0.00,VWS V14.00,2013-07-17 13:52:00,
2013-07-17 09:57:00,82.9,74.2,30.30,West,270,1.6,1.6,75,0.00,,---,0.00,VWS V14.00,2013-07-17 13:57:00,
2013-07-17 10:02:00,83.3,74.6,30.30,West,270,2.5,2.9,75,0.00,,---,0.00,VWS V14.00,2013-07-17 14:02:00,
2013-07-17 10:07:00,83.5,74.3,30.30,North,0,1.3,1.6,74,0.00,,---,0.00,VWS V14.00,2013-07-17 14:07:00,
2013-07-17 10:12:00,83.5,74.3,30.30,North,0,2.0,2.5,74,0.00,,---,0.00,VWS V14.00,2013-07-17 14:12:00,
2013-07-17 10:18:00,83.7,74.5,30.30,West,270,0.9,0.9,74,0.00,,---,0.00,VWS V14.00,2013-07-17 14:18:00,
2013-07-17 10:23:00,84.2,74.6,30.33,South,180,0.0,1.6,73,0.00,,---,0.00,VWS V14.00,2013-07-17 14:23:00,
2013-07-17 10:28:00,84.7,75.1,30.33,West,270,0.0,2.2,73,0.00,,---,0.00,VWS V14.00,2013-07-17 14:28:00,
2013-07-17 10:33:00,85.3,75.2,30.33,WSW,248,0.9,0.9,72,0.00,,---,0.00,VWS V14.00,2013-07-17 14:33:00,
2013-07-17 10:38:00,85.5,75.4,30.27,WSW,248,0.0,2.0,72,0.00,,---,0.00,VWS V14.00,2013-07-17 14:38:00,
2013-07-17 10:43:00,85.6,75.6,30.27,SSW,202,0.0,2.5,72,0.00,,---,0.00,VWS V14.00,2013-07-17 14:43:00,
2013-07-17 10:48:00,86.0,75.5,30.27,SW,225,0.0,0.9,71,0.00,,---,0.00,VWS V14.00,2013-07-17 14:48:00,
2013-07-17 10:53:00,86.4,75.8,30.30,South,180,0.9,3.1,71,0.00,,---,0.00,VWS V14.00,2013-07-17 14:53:00,
2013-07-17 10:58:00,86.4,75.8,30.30,WSW,248,1.6,1.6,71,0.00,,---,0.00,VWS V14.00,2013-07-17 14:58:00,
2013-07-17 11:03:00,85.8,74.9,30.30,SW,225,0.0,1.1,70,0.00,,---,0.00,VWS V14.00,2013-07-17 15:03:00,
2013-07-17 11:08:00,85.5,74.6,30.30,WSW,248,0.0,1.1,70,0.00,,---,0.00,VWS V14.00,2013-07-17 15:08:00,
2013-07-17 11:13:00,85.1,74.6,30.30,WSW,248,1.1,1.1,71,0.00,,---,0.00,VWS V14.00,2013-07-17 15:13:00,
2013-07-17 11:18:00,84.7,74.3,30.30,WSW,248,0.0,1.6,71,0.00,,---,0.00,VWS V14.00,2013-07-17 15:18:00,
2013-07-17 11:24:00,84.6,74.1,30.30,WSW,248,0.0,1.1,71,0.00,,---,0.00,VWS V14.00,2013-07-17 15:24:00,
2013-07-17 11:28:00,84.7,74.7,30.30,WSW,248,2.0,2.0,72,0.00,,---,0.00,VWS V14.00,2013-07-17 15:28:00,
2013-07-17 11:33:00,84.7,74.7,30.30,WSW,248,0.0,0.0,72,0.00,,---,0.00,VWS V14.00,2013-07-17 15:33:00,
2013-07-17 11:38:00,85.5,75.8,30.30,WSW,248,0.0,2.0,73,0.00,,---,0.00,VWS V14.00,2013-07-17 15:38:00,
2013-07-17 11:43:00,86.4,76.3,30.30,WSW,248,2.9,4.0,72,0.00,,---,0.00,VWS V14.00,2013-07-17 15:43:00,
2013-07-17 11:48:00,86.5,75.6,30.30,West,270,2.2,2.2,70,0.00,,---,0.00,VWS V14.00,2013-07-17 15:48:00,
2013-07-17 11:53:00,86.9,75.5,30.27,WSW,248,0.0,1.3,69,0.00,,---,0.00,VWS V14.00,2013-07-17 15:53:00,
2013-07-17 11:58:00,87.3,76.7,30.27,SSW,202,1.1,1.1,71,0.00,,---,0.00,VWS V14.00,2013-07-17 15:58:00,
2013-07-17 12:03:00,87.6,75.8,30.27,WSW,248,0.9,3.1,68,0.00,,---,0.00,VWS V14.00,2013-07-17 16:03:00,
2013-07-17 12:08:00,87.8,75.0,30.27,SW,225,0.0,2.5,66,0.00,,---,0.00,VWS V14.00,2013-07-17 16:08:00,
2013-07-17 12:13:00,88.2,74.9,30.27,South,180,1.1,1.1,65,0.00,,---,0.00,VWS V14.00,2013-07-17 16:13:00,
2013-07-17 12:18:00,88.5,75.3,30.27,West,270,2.5,2.5,65,0.00,,---,0.00,VWS V14.00,2013-07-17 16:18:00,
2013-07-17 12:23:00,89.2,75.9,30.30,SSW,202,0.0,0.0,65,0.00,,---,0.00,VWS V14.00,2013-07-17 16:23:00,
2013-07-17 12:28:00,89.2,75.9,30.30,West,270,1.6,3.6,65,0.00,,---,0.00,VWS V14.00,2013-07-17 16:28:00,
2013-07-17 12:33:00,89.4,76.1,30.30,NNW,338,1.1,2.0,65,0.00,,---,0.00,VWS V14.00,2013-07-17 16:33:00,
2013-07-17 12:38:00,90.0,76.2,30.27,North,0,0.0,0.0,64,0.00,,---,0.00,VWS V14.00,2013-07-17 16:38:00,
2013-07-17 12:43:00,90.0,76.2,30.27,SW,225,0.0,1.3,64,0.00,,---,0.00,VWS V14.00,2013-07-17 16:43:00,
2013-07-17 12:48:00,90.1,75.4,30.27,NW,315,0.0,2.0,62,0.00,,---,0.00,VWS V14.00,2013-07-17 16:48:00,
2013-07-17 12:53:00,90.7,75.4,30.27,SW,225,0.0,2.0,61,0.00,,---,0.00,VWS V14.00,2013-07-17 16:53:00,
2013-07-17 12:58:00,90.1,73.9,30.27,West,270,2.7,2.9,59,0.00,,---,0.00,VWS V14.00,2013-07-17 16:58:00,
2013-07-17 13:03:00,89.6,74.4,30.27,WSW,248,2.5,2.5,61,0.00,,---,0.00,VWS V14.00,2013-07-17 17:03:00,
2013-07-17 13:08:00,90.1,74.9,30.27,SSW,202,1.3,1.6,61,0.00,,---,0.00,VWS V14.00,2013-07-17 17:08:00,
2013-07-17 13:14:00,90.5,75.2,30.27,WNW,292,1.3,1.3,61,0.00,,---,0.00,VWS V14.00,2013-07-17 17:14:00,
2013-07-17 13:19:00,91.0,75.7,30.27,SSW,202,0.0,0.0,61,0.00,,---,0.00,VWS V14.00,2013-07-17 17:19:00,
2013-07-17 13:24:00,91.4,76.1,30.24,SW,225,1.1,1.3,61,0.00,,---,0.00,VWS V14.00,2013-07-17 17:24:00,
2013-07-17 13:29:00,91.0,75.2,30.24,SW,225,0.9,1.1,60,0.00,,---,0.00,VWS V14.00,2013-07-17 17:29:00,
2013-07-17 13:34:00,91.4,75.1,30.24,North,0,2.9,2.9,59,0.00,,---,0.00,VWS V14.00,2013-07-17 17:34:00,
2013-07-17 13:39:00,91.4,74.0,30.24,NNW,338,2.5,2.7,57,0.00,,---,0.00,VWS V14.00,2013-07-17 17:39:00,
2013-07-17 13:44:00,91.8,73.8,30.24,West,270,0.0,1.1,56,0.00,,---,0.00,VWS V14.00,2013-07-17 17:44:00,
2013-07-17 13:49:00,91.9,74.5,30.24,WSW,248,2.5,2.5,57,0.00,,---,0.00,VWS V14.00,2013-07-17 17:49:00,
2013-07-17 13:54:00,92.3,74.3,30.24,SSW,202,2.0,2.5,56,0.00,,---,0.00,VWS V14.00,2013-07-17 17:54:00,
2013-07-17 13:59:00,92.5,74.0,30.24,WSW,248,0.0,0.9,55,0.00,,---,0.00,VWS V14.00,2013-07-17 17:59:00,
2013-07-17 14:04:00,91.6,74.2,30.24,WSW,248,0.9,2.5,57,0.00,,---,0.00,VWS V14.00,2013-07-17 18:04:00,
2013-07-17 14:09:00,91.0,73.7,30.21,West,270,1.1,1.6,57,0.00,,---,0.00,VWS V14.00,2013-07-17 18:09:00,
2013-07-17 14:14:00,91.0,73.7,30.21,SW,225,0.0,2.7,57,0.00,,---,0.00,VWS V14.00,2013-07-17 18:14:00,
2013-07-17 14:19:00,91.4,74.0,30.21,NW,315,1.1,2.5,57,0.00,,---,0.00,VWS V14.00,2013-07-17 18:19:00,
2013-07-17 14:24:00,91.2,74.4,30.24,NW,315,0.0,1.1,58,0.00,,---,0.00,VWS V14.00,2013-07-17 18:24:00,
2013-07-17 14:29:00,91.0,74.7,30.24,NE,45,0.9,3.1,59,0.00,,---,0.00,VWS V14.00,2013-07-17 18:29:00,
2013-07-17 14:34:00,90.7,74.4,30.24,WSW,248,1.6,2.5,59,0.00,,---,0.00,VWS V14.00,2013-07-17 18:34:00,
2013-07-17 14:39:00,90.3,73.0,30.24,SW,225,1.6,2.5,57,0.00,,---,0.00,VWS V14.00,2013-07-17 18:39:00,
2013-07-17 14:44:00,90.9,74.1,30.24,SSW,202,2.0,2.5,58,0.00,,---,0.00,VWS V14.00,2013-07-17 18:44:00,
2013-07-17 14:49:00,91.0,74.2,30.24,South,180,1.3,2.9,58,0.00,,---,0.00,VWS V14.00,2013-07-17 18:49:00,
2013-07-17 14:54:00,91.2,73.9,30.21,SSW,202,1.6,2.5,57,0.00,,---,0.00,VWS V14.00,2013-07-17 18:54:00,
2013-07-17 14:59:00,91.6,73.7,30.21,NE,45,2.2,3.1,56,0.00,,---,0.00,VWS V14.00,2013-07-17 18:59:00,
2013-07-17 15:04:00,91.6,73.7,30.21,SSW,202,2.2,2.5,56,0.00,,---,0.00,VWS V14.00,2013-07-17 19:04:00,
2013-07-17 15:09:00,91.8,73.3,30.24,SSW,202,0.0,2.0,55,0.00,,---,0.00,VWS V14.00,2013-07-17 19:09:00,
2013-07-17 15:14:00,92.1,74.2,30.24,South,180,2.2,2.2,56,0.00,,---,0.00,VWS V14.00,2013-07-17 19:14:00,
2013-07-17 15:19:00,92.3,73.3,30.24,WNW,292,2.5,3.1,54,0.00,,---,0.00,VWS V14.00,2013-07-17 19:19:00,
2013-07-17 15:24:00,91.8,73.3,30.24,NW,315,2.0,2.0,55,0.00,,---,0.00,VWS V14.00,2013-07-17 19:24:00,
2013-07-17 15:29:00,91.4,72.4,30.24,NNE,22,1.3,2.9,54,0.00,,---,0.00,VWS V14.00,2013-07-17 19:29:00,
2013-07-17 15:34:00,91.6,72.6,30.24,WSW,248,2.9,3.8,54,0.00,,---,0.00,VWS V14.00,2013-07-17 19:34:00,
2013-07-17 15:39:00,91.6,72.6,30.24,NW,315,2.5,3.1,54,0.00,,---,0.00,VWS V14.00,2013-07-17 19:39:00,
2013-07-17 15:44:00,91.2,72.8,30.24,NW,315,0.0,3.4,55,0.00,,---,0.00,VWS V14.00,2013-07-17 19:44:00,
2013-07-17 15:49:00,90.9,71.9,30.24,SW,225,2.0,2.5,54,0.00,,---,0.00,VWS V14.00,2013-07-17 19:49:00,
2013-07-17 15:54:00,91.2,72.8,30.24,SW,225,1.1,1.3,55,0.00,,---,0.00,VWS V14.00,2013-07-17 19:54:00,
2013-07-17 15:59:00,91.2,73.9,30.24,SSW,202,2.2,2.5,57,0.00,,---,0.00,VWS V14.00,2013-07-17 19:59:00,
2013-07-17 16:04:00,91.2,72.8,30.24,NNW,338,2.0,3.6,55,0.00,,---,0.00,VWS V14.00,2013-07-17 20:04:00,
2013-07-17 16:09:00,91.0,72.1,30.24,WSW,248,2.9,3.1,54,0.00,,---,0.00,VWS V14.00,2013-07-17 20:09:00,
2013-07-17 16:14:00,90.9,73.0,30.24,WSW,248,1.6,1.6,56,0.00,,---,0.00,VWS V14.00,2013-07-17 20:14:00,
2013-07-17 16:19:00,90.9,73.0,30.24,West,270,3.1,3.1,56,0.00,,---,0.00,VWS V14.00,2013-07-17 20:19:00,
2013-07-17 16:24:00,90.5,72.1,30.24,South,180,1.3,2.7,55,0.00,,---,0.00,VWS V14.00,2013-07-17 20:24:00,
2013-07-17 16:29:00,90.3,72.0,30.24,SSW,202,1.3,2.7,55,0.00,,---,0.00,VWS V14.00,2013-07-17 20:29:00,
2013-07-17 16:34:00,90.3,72.0,30.24,WSW,248,2.7,2.7,55,0.00,,---,0.00,VWS V14.00,2013-07-17 20:34:00,
2013-07-17 16:39:00,90.1,70.7,30.21,SSW,202,1.1,2.5,53,0.00,,---,0.00,VWS V14.00,2013-07-17 20:39:00,
2013-07-17 16:44:00,90.0,70.6,30.21,WNW,292,2.2,4.0,53,0.00,,---,0.00,VWS V14.00,2013-07-17 20:44:00,
2013-07-17 16:49:00,89.8,70.4,30.21,WNW,292,2.9,2.9,53,0.00,,---,0.00,VWS V14.00,2013-07-17 20:49:00,
2013-07-17 16:54:00,89.8,71.5,30.21,West,270,3.1,3.1,55,0.00,,---,0.00,VWS V14.00,2013-07-17 20:54:00,
2013-07-17 16:59:00,89.8,70.9,30.21,NW,315,0.9,1.6,54,0.00,,---,0.00,VWS V14.00,2013-07-17 20:59:00,
2013-07-17 17:04:00,89.8,71.5,30.21,SSW,202,1.3,2.5,55,0.00,,---,0.00,VWS V14.00,2013-07-17 21:04:00,
2013-07-17 17:09:00,89.6,71.8,30.21,West,270,1.3,4.3,56,0.00,,---,0.00,VWS V14.00,2013-07-17 21:09:00,
2013-07-17 17:14:00,89.4,71.7,30.21,West,270,1.3,1.3,56,0.00,,---,0.00,VWS V14.00,2013-07-17 21:14:00,
2013-07-17 17:19:00,89.4,72.2,30.21,NNE,22,0.0,2.0,57,0.00,,---,0.00,VWS V14.00,2013-07-17 21:19:00,
2013-07-17 17:24:00,89.6,72.9,30.21,SSW,202,2.0,2.2,58,0.00,,---,0.00,VWS V14.00,2013-07-17 21:24:00,
2013-07-17 17:29:00,89.4,72.2,30.21,SW,225,1.1,4.3,57,0.00,,---,0.00,VWS V14.00,2013-07-17 21:29:00,
2013-07-17 17:34:00,89.4,72.2,30.21,SW,225,0.0,0.0,57,0.00,,---,0.00,VWS V14.00,2013-07-17 21:34:00,
2013-07-17 17:39:00,89.2,72.0,30.21,WSW,248,3.1,3.1,57,0.00,,---,0.00,VWS V14.00,2013-07-17 21:39:00,
2013-07-17 17:44:00,88.9,71.7,30.21,West,270,0.9,2.9,57,0.00,,---,0.00,VWS V14.00,2013-07-17 21:44:00,
2013-07-17 17:49:00,89.1,71.9,30.21,South,180,0.0,0.0,57,0.00,,---,0.00,VWS V14.00,2013-07-17 21:49:00,
2013-07-17 17:54:00,89.1,72.4,30.21,SW,225,1.3,2.7,58,0.00,,---,0.00,VWS V14.00,2013-07-17 21:54:00,
2013-07-17 17:59:00,88.7,71.0,30.21,West,270,1.6,2.7,56,0.00,,---,0.00,VWS V14.00,2013-07-17 21:59:00,
2013-07-17 18:04:00,88.7,71.5,30.21,WSW,248,1.3,1.3,57,0.00,,---,0.00,VWS V14.00,2013-07-17 22:04:00,
2013-07-17 18:09:00,88.7,72.0,30.21,WSW,248,1.1,2.0,58,0.00,,---,0.00,VWS V14.00,2013-07-17 22:09:00,
2013-07-17 18:14:00,88.5,71.9,30.21,WSW,248,1.3,1.3,58,0.00,,---,0.00,VWS V14.00,2013-07-17 22:14:00,
2013-07-17 18:20:00,88.5,72.4,30.18,SSW,202,1.3,1.3,59,0.00,,---,0.00,VWS V14.00,2013-07-17 22:20:00,
2013-07-17 18:25:00,88.5,72.4,30.18,South,180,0.0,0.0,59,0.00,,---,0.00,VWS V14.00,2013-07-17 22:25:00,
2013-07-17 18:30:00,88.5,72.4,30.18,South,180,0.0,0.0,59,0.00,,---,0.00,VWS V14.00,2013-07-17 22:30:00,
2013-07-17 18:35:00,88.3,72.2,30.21,SSW,202,2.0,2.7,59,0.00,,---,0.00,VWS V14.00,2013-07-17 22:35:00,
2013-07-17 18:40:00,88.3,72.2,30.21,West,270,0.0,0.0,59,0.00,,---,0.00,VWS V14.00,2013-07-17 22:40:00,
2013-07-17 18:45:00,88.3,72.2,30.21,NW,315,2.0,2.0,59,0.00,,---,0.00,VWS V14.00,2013-07-17 22:45:00,
2013-07-17 18:50:00,88.2,72.0,30.18,SSW,202,0.0,0.9,59,0.00,,---,0.00,VWS V14.00,2013-07-17 22:50:00,
2013-07-17 18:55:00,88.2,72.0,30.18,SSW,202,0.0,2.7,59,0.00,,---,0.00,VWS V14.00,2013-07-17 22:55:00,
2013-07-17 19:00:00,88.2,72.5,30.18,West,270,0.0,0.0,60,0.00,,---,0.00,VWS V14.00,2013-07-17 23:00:00,
2013-07-17 19:05:00,88.0,72.4,30.18,SSW,202,0.0,0.9,60,0.00,,---,0.00,VWS V14.00,2013-07-17 23:05:00,
2013-07-17 19:10:00,87.8,72.2,30.18,SSW,202,1.6,1.6,60,0.00,,---,0.00,VWS V14.00,2013-07-17 23:10:00,
2013-07-17 19:15:00,87.4,72.3,30.18,WNW,292,2.7,2.7,61,0.00,,---,0.00,VWS V14.00,2013-07-17 23:15:00,
2013-07-17 19:20:00,87.4,71.9,30.18,SW,225,0.9,2.0,60,0.00,,---,0.00,VWS V14.00,2013-07-17 23:20:00,
2013-07-17 19:25:00,87.3,72.2,30.18,West,270,0.0,0.0,61,0.00,,---,0.00,VWS V14.00,2013-07-17 23:25:00,
2013-07-17 19:30:00,87.1,72.0,30.18,West,270,1.1,1.3,61,0.00,,---,0.00,VWS V14.00,2013-07-17 23:30:00,
2013-07-17 19:35:00,87.1,72.5,30.18,WSW,248,0.0,1.1,62,0.00,,---,0.00,VWS V14.00,2013-07-17 23:35:00,
2013-07-17 19:40:00,86.9,72.3,30.18,West,270,0.0,1.1,62,0.00,,---,0.00,VWS V14.00,2013-07-17 23:40:00,
2013-07-17 19:45:00,87.1,72.5,30.18,West,270,0.0,0.0,62,0.00,,---,0.00,VWS V14.00,2013-07-17 23:45:00,
2013-07-17 19:50:00,87.1,72.5,30.15,South,180,0.0,0.0,62,0.00,,---,0.00,VWS V14.00,2013-07-17 23:50:00,
2013-07-17 19:55:00,86.9,72.3,30.15,West,270,0.0,1.6,62,0.00,,---,0.00,VWS V14.00,2013-07-17 23:55:00,
2013-07-17 20:00:00,86.5,72.0,30.15,WNW,292,0.9,1.6,62,0.00,,---,0.00,VWS V14.00,2013-07-18 00:00:00,
2013-07-17 20:05:00,86.2,71.6,30.18,West,270,1.6,1.6,62,0.00,,---,0.00,VWS V14.00,2013-07-18 00:05:00,
2013-07-17 20:10:00,86.0,71.9,30.18,NW,315,0.0,0.0,63,0.00,,---,0.00,VWS V14.00,2013-07-18 00:10:00,
2013-07-17 20:16:00,85.8,72.2,30.18,SW,225,0.0,0.0,64,0.00,,---,0.00,VWS V14.00,2013-07-18 00:16:00,
2013-07-17 20:21:00,85.6,72.1,30.15,West,270,0.9,0.9,64,0.00,,---,0.00,VWS V14.00,2013-07-18 00:21:00,
2013-07-17 20:26:00,85.5,71.9,30.15,WSW,248,0.0,0.0,64,0.00,,---,0.00,VWS V14.00,2013-07-18 00:26:00,
2013-07-17 20:31:00,85.1,71.6,30.15,WSW,248,0.0,0.0,64,0.00,,---,0.00,VWS V14.00,2013-07-18 00:31:00,
2013-07-17 20:36:00,84.9,71.4,30.15,West,270,0.0,0.0,64,0.00,,---,0.00,VWS V14.00,2013-07-18 00:36:00,
2013-07-17 20:41:00,84.6,71.1,30.15,West,270,0.0,1.1,64,0.00,,---,0.00,VWS V14.00,2013-07-18 00:41:00,
2013-07-17 20:46:00,84.4,71.3,30.15,SW,225,0.0,0.0,65,0.00,,---,0.00,VWS V14.00,2013-07-18 00:46:00,
2013-07-17 20:51:00,84.0,71.0,30.18,SW,225,0.0,0.0,65,0.00,,---,0.00,VWS V14.00,2013-07-18 00:51:00,
2013-07-17 20:56:00,83.7,70.7,30.18,SW,225,0.0,0.0,65,0.00,,---,0.00,VWS V14.00,2013-07-18 00:56:00,
2013-07-17 21:01:00,83.5,70.5,30.18,SW,225,0.0,0.0,65,0.00,,---,0.00,VWS V14.00,2013-07-18 01:01:00,
2013-07-17 21:06:00,83.3,70.8,30.18,WSW,248,0.0,1.1,66,0.00,,---,0.00,VWS V14.00,2013-07-18 01:06:00,
2013-07-17 21:11:00,82.9,70.4,30.18,WSW,248,0.0,0.0,66,0.00,,---,0.00,VWS V14.00,2013-07-18 01:11:00,
2013-07-17 21:16:00,82.6,70.1,30.18,WSW,248,0.0,0.0,66,0.00,,---,0.00,VWS V14.00,2013-07-18 01:16:00,
2013-07-17 21:21:00,82.4,69.9,30.18,WSW,248,0.0,0.0,66,0.00,,---,0.00,VWS V14.00,2013-07-18 01:21:00,
2013-07-17 21:26:00,82.2,70.2,30.18,WSW,248,0.0,0.0,67,0.00,,---,0.00,VWS V14.00,2013-07-18 01:26:00,
2013-07-17 21:31:00,81.9,70.3,30.18,WSW,248,0.0,0.0,68,0.00,,---,0.00,VWS V14.00,2013-07-18 01:31:00,
2013-07-17 21:36:00,81.7,70.1,30.18,WSW,248,0.0,0.0,68,0.00,,---,0.00,VWS V14.00,2013-07-18 01:36:00,
2013-07-17 21:41:00,81.3,69.8,30.18,WSW,248,0.0,0.0,68,0.00,,---,0.00,VWS V14.00,2013-07-18 01:41:00,
2013-07-17 21:46:00,81.1,70.0,30.18,WSW,248,0.0,0.0,69,0.00,,---,0.00,VWS V14.00,2013-07-18 01:46:00,
2013-07-17 21:51:00,81.0,69.8,30.18,WSW,248,0.0,0.0,69,0.00,,---,0.00,VWS V14.00,2013-07-18 01:51:00,
2013-07-17 21:56:00,80.8,69.7,30.18,WSW,248,0.0,0.0,69,0.00,,---,0.00,VWS V14.00,2013-07-18 01:56:00,
2013-07-17 22:01:00,80.6,69.9,30.18,WSW,248,0.0,0.0,70,0.00,,---,0.00,VWS V14.00,2013-07-18 02:01:00,
2013-07-17 22:06:00,80.4,70.2,30.18,WSW,248,0.0,0.0,71,0.00,,---,0.00,VWS V14.00,2013-07-18 02:06:00,
2013-07-17 22:11:00,80.2,70.0,30.18,WSW,248,0.0,0.0,71,0.00,,---,0.00,VWS V14.00,2013-07-18 02:11:00,
2013-07-17 22:16:00,80.1,70.2,30.18,WSW,248,0.0,0.0,72,0.00,,---,0.00,VWS V14.00,2013-07-18 02:16:00,
2013-07-17 22:22:00,79.9,70.1,30.18,WSW,248,0.0,0.0,72,0.00,,---,0.00,VWS V14.00,2013-07-18 02:22:00,
2013-07-17 22:27:00,79.7,70.3,30.18,WSW,248,0.0,0.0,73,0.00,,---,0.00,VWS V14.00,2013-07-18 02:27:00,
2013-07-17 22:32:00,79.5,70.1,30.18,WSW,248,0.0,0.0,73,0.00,,---,0.00,VWS V14.00,2013-07-18 02:32:00,
2013-07-17 22:37:00,79.3,70.3,30.18,WSW,248,0.0,0.0,74,0.00,,---,0.00,VWS V14.00,2013-07-18 02:37:00,
2013-07-17 22:42:00,79.3,70.3,30.18,WSW,248,0.0,0.0,74,0.00,,---,0.00,VWS V14.00,2013-07-18 02:42:00,
2013-07-17 22:47:00,79.2,70.2,30.18,WSW,248,0.0,0.0,74,0.00,,---,0.00,VWS V14.00,2013-07-18 02:47:00,
2013-07-17 22:52:00,79.2,70.6,30.18,WSW,248,0.0,0.0,75,0.00,,---,0.00,VWS V14.00,2013-07-18 02:52:00,
2013-07-17 22:57:00,79.0,70.4,30.18,WSW,248,0.0,0.0,75,0.00,,---,0.00,VWS V14.00,2013-07-18 02:57:00,
2013-07-17 23:02:00,79.0,70.4,30.18,WSW,248,0.0,0.0,75,0.00,,---,0.00,VWS V14.00,2013-07-18 03:02:00,
2013-07-17 23:07:00,78.8,70.6,30.18,WSW,248,0.0,0.0,76,0.00,,---,0.00,VWS V14.00,2013-07-18 03:07:00,
2013-07-17 23:12:00,78.8,70.6,30.18,WSW,248,0.0,0.0,76,0.00,,---,0.00,VWS V14.00,2013-07-18 03:12:00,
2013-07-17 23:17:00,78.6,70.8,30.18,WSW,248,0.0,0.0,77,0.00,,---,0.00,VWS V14.00,2013-07-18 03:17:00,
2013-07-17 23:22:00,78.6,70.8,30.18,WSW,248,0.0,0.0,77,0.00,,---,0.00,VWS V14.00,2013-07-18 03:22:00,
2013-07-17 23:27:00,78.4,70.6,30.18,WSW,248,0.0,0.0,77,0.00,,---,0.00,VWS V14.00,2013-07-18 03:27:00,
2013-07-17 23:32:00,78.4,70.6,30.18,WSW,248,0.0,0.0,77,0.00,,---,0.00,VWS V14.00,2013-07-18 03:32:00,
2013-07-17 23:37:00,78.3,70.8,30.18,WSW,248,0.0,0.0,78,0.00,,---,0.00,VWS V14.00,2013-07-18 03:37:00,
2013-07-17 23:42:00,78.3,70.8,30.18,WSW,248,0.0,0.0,78,0.00,,---,0.00,VWS V14.00,2013-07-18 03:42:00,
2013-07-17 23:47:00,78.1,70.7,30.18,WSW,248,0.0,0.0,78,0.00,,---,0.00,VWS V14.00,2013-07-18 03:47:00,
2013-07-17 23:52:00,78.1,70.7,30.18,WSW,248,0.0,0.0,78,0.00,,---,0.00,VWS V14.00,2013-07-18 03:52:00,
2013-07-17 23:57:00,77.9,70.5,30.18,WSW,248,0.0,0.0,78,0.00,,---,0.00,VWS V14.00,2013-07-18 03:57:00,